utc_time,unix_time,temp,cond,salinity,tds,chla_rfu,chla_ugl,bga_rfu,bga_ugl,odo,sat,nitrate_um,nitrogen_mg,stage,area,discharge,total_discharge
2021-06-07 21:05:19+00:00,1623099919,,,,,,,,,,,13.012,0.18224,,,,
2021-06-07 21:06:19+00:00,1623099979,,,,,,,,,,,12.21,0.17102,,,,
2021-06-07 21:07:24+00:00,1623100044,,,,,,,,,,,11.731,0.0657,,,,
2021-06-07 21:08:19+00:00,1623100099,,,,,,,,,,,11.761,0.16472,,,,
2021-06-07 21:09:19+00:00,1623100159,,,,,,,,,,,11.399,0.15964,,,,
2021-06-07 21:10:19+00:00,1623100219,,,,,,,,,,,10.83,0.15168,,,,
2021-06-07 21:20:19+00:00,1623100819,,,,,,,,,,,14.727,0.20625,,,,
2021-06-07 21:40:19+00:00,1623102019,,,,,,,,,,,11.887,0.16649,,,,
2021-06-07 22:00:19+00:00,1623103219,,,,,,,,,,,8.831,0.12372,,,,
2021-06-07 22:20:19+00:00,1623104419,,,,,,,,,,,11.881,0.16643,,,,
2021-06-07 22:40:19+00:00,1623105619,,,,,,,,,,,7.941,0.11125,,,,
2021-06-07 23:00:19+00:00,1623106819,,,,,,,,,,,14.26,0.19974,,,,
2021-06-07 23:20:19+00:00,1623108019,,,,,,,,,,,16.011,0.22429,,,,
2021-06-07 23:41:00+00:00,1623109260,,,,,,,,,,,41.605,0.48415,,,,
2021-06-08 00:00:19+00:00,1623110419,,,,,,,,,,,17.591,0.24637,,,,
2021-06-08 00:20:19+00:00,1623111619,,,,,,,,,,,17.194,0.24082,,,,
2021-06-08 00:40:19+00:00,1623112819,,,,,,,,,,,18.046,0.25275,,,,
2021-06-08 01:00:19+00:00,1623114019,,,,,,,,,,,21.39,0.29959,,,,
2021-06-08 01:20:20+00:00,1623115220,,,,,,,,,,,20.825,0.29169,,,,
2021-06-08 01:40:19+00:00,1623116419,,,,,,,,,,,22.516,0.31536,,,,
2021-06-08 02:00:19+00:00,1623117619,,,,,,,,,,,25.538,0.35769,,,,
2021-06-08 02:20:19+00:00,1623118819,,,,,,,,,,,21.454,0.3005,,,,
2021-06-08 02:40:20+00:00,1623120020,,,,,,,,,,,20.558,0.28795,,,,
2021-06-08 03:00:19+00:00,1623121219,,,,,,,,,,,22.263,0.31185,,,,
2021-06-08 03:20:19+00:00,1623122419,,,,,,,,,,,25.06,0.35101,,,,
2021-06-08 03:40:19+00:00,1623123619,,,,,,,,,,,27.262,0.38185,,,,
2021-06-08 04:00:19+00:00,1623124819,,,,,,,,,,,28.358,0.39721,,,,
2021-06-08 04:20:19+00:00,1623126019,,,,,,,,,,,29.101,0.4076,,,,
2021-06-08 04:40:19+00:00,1623127219,,,,,,,,,,,31.099,0.43558,,,,
2021-06-08 05:00:19+00:00,1623128419,,,,,,,,,,,32.849,0.46011,,,,
2021-06-08 05:20:19+00:00,1623129619,,,,,,,,,,,39.793,0.55738,,,,
2021-06-08 05:40:19+00:00,1623130819,,,,,,,,,,,51.797,0.72555,,,,
2021-06-08 06:00:19+00:00,1623132019,,,,,,,,,,,57.535,0.80587,,,,
2021-06-08 06:20:19+00:00,1623133219,,,,,,,,,,,65.06,0.91128,,,,
2021-06-08 06:40:19+00:00,1623134419,,,,,,,,,,,63.342,0.88721,,,,
2021-06-08 07:00:19+00:00,1623135619,,,,,,,,,,,71.209,0.99741,,,,
2021-06-08 07:20:19+00:00,1623136819,,,,,,,,,,,72.471,1.0151,,,,
2021-06-08 07:40:20+00:00,1623138020,,,,,,,,,,,77.996,1.09249,,,,
2021-06-08 08:00:19+00:00,1623139219,,,,,,,,,,,84.28,1.18048,,,,
2021-06-08 08:20:19+00:00,1623140419,,,,,,,,,,,84.269,1.18036,,,,
2021-06-08 08:40:19+00:00,1623141619,,,,,,,,,,,81.812,1.14591,,,,
2021-06-08 09:00:19+00:00,1623142819,,,,,,,,,,,88.958,1.246,,,,
2021-06-08 09:20:19+00:00,1623144019,,,,,,,,,,,88.876,1.24485,,,,
2021-06-08 09:40:19+00:00,1623145219,,,,,,,,,,,87.013,1.21875,,,,
2021-06-08 10:00:19+00:00,1623146419,,,,,,,,,,,92.514,1.29584,,,,
2021-06-08 10:20:20+00:00,1623147620,,,,,,,,,,,64.689,0.90608,,,,
2021-06-08 10:40:19+00:00,1623148819,,,,,,,,,,,29.46,0.41266,,,,
2021-06-08 11:00:19+00:00,1623150019,,,,,,,,,,,12.579,0.17619,,,,
2021-06-08 11:20:19+00:00,1623151219,,,,,,,,,,,3.46,0.04846,,,,
2021-06-08 11:40:20+00:00,1623152420,,,,,,,,,,,3.47,0.04862,,,,
2021-06-08 12:00:19+00:00,1623153619,,,,,,,,,,,1.693,0.02372,,,,
2021-06-08 12:20:19+00:00,1623154819,,,,,,,,,,,4.892,0.06853,,,,
2021-06-08 12:40:19+00:00,1623156019,,,,,,,,,,,7.575,0.10609,,,,
2021-06-08 13:00:19+00:00,1623157219,,,,,,,,,,,8.404,0.11772,,,,
2021-06-08 13:20:19+00:00,1623158419,,,,,,,,,,,10.023,0.14036,,,,
2021-06-08 13:40:19+00:00,1623159619,,,,,,,,,,,10.453,0.14642,,,,
2021-06-08 14:00:19+00:00,1623160819,,,,,,,,,,,11.86,0.16613,,,,
2021-06-08 14:20:19+00:00,1623162019,,,,,,,,,,,10.332,0.14472,,,,
2021-06-08 14:40:20+00:00,1623163220,,,,,,,,,,,10.364,0.14514,,,,
2021-06-08 15:00:19+00:00,1623164419,,,,,,,,,,,13.809,0.19343,,,,
2021-06-08 15:20:19+00:00,1623165619,,,,,,,,,,,12.393,0.1736,,,,
2021-06-08 15:40:19+00:00,1623166819,,,,,,,,,,,13.603,0.19054,,,,
2021-06-08 16:00:19+00:00,1623168019,,,,,,,,,,,11.904,0.16675,,,,
2021-06-08 16:20:19+00:00,1623169219,,,,,,,,,,,11.046,0.15473,,,,
2021-06-08 16:40:19+00:00,1623170419,,,,,,,,,,,12.773,0.17893,,,,
2021-06-08 17:00:19+00:00,1623171619,,,,,,,,,,,12.043,0.16868,,,,
2021-06-08 17:20:19+00:00,1623172819,,,,,,,,,,,14.667,0.20544,,,,
2021-06-08 17:40:19+00:00,1623174019,,,,,,,,,,,11.174,0.15655,,,,
2021-06-08 18:00:20+00:00,1623175220,,,,,,,,,,,11.742,0.16446,,,,
2021-06-08 18:20:19+00:00,1623176419,,,,,,,,,,,10.528,0.14747,,,,
2021-06-08 18:40:19+00:00,1623177619,,,,,,,,,,,8.792,0.12317,,,,
2021-06-08 19:00:19+00:00,1623178819,,,,,,,,,,,11.293,0.1582,,,,
2021-06-08 19:20:19+00:00,1623180019,,,,,,,,,,,10.218,0.14313,,,,
2021-06-08 19:40:19+00:00,1623181219,,,,,,,,,,,13.994,0.19602,,,,
2021-06-08 20:00:19+00:00,1623182419,,,,,,,,,,,11.905,0.16677,,,,
2021-06-08 20:20:19+00:00,1623183619,,,,,,,,,,,12.288,0.17211,,,,
2021-06-08 20:40:19+00:00,1623184819,,,,,,,,,,,14.366,0.20125,,,,
2021-06-08 21:00:20+00:00,1623186020,,,,,,,,,,,14.788,0.20717,,,,
2021-06-08 21:20:19+00:00,1623187219,,,,,,,,,,,15.844,0.22191,,,,
2021-06-08 21:40:19+00:00,1623188419,,,,,,,,,,,15.884,0.22247,,,,
2021-06-08 22:00:19+00:00,1623189619,,,,,,,,,,,16.005,0.22417,,,,
2021-06-08 22:20:20+00:00,1623190820,,,,,,,,,,,21.281,0.29805,,,,
2021-06-08 22:40:19+00:00,1623192019,,,,,,,,,,,18.86,0.26416,,,,
2021-06-08 23:00:19+00:00,1623193219,,,,,,,,,,,21.049,0.29482,,,,
2021-06-08 23:20:19+00:00,1623194419,,,,,,,,,,,18.552,0.25987,,,,
2021-06-08 23:40:19+00:00,1623195619,,,,,,,,,,,25.2,0.35297,,,,
2021-06-09 00:00:19+00:00,1623196819,,,,,,,,,,,27.074,0.37923,,,,
2021-06-09 00:20:19+00:00,1623198019,,,,,,,,,,,28.489,0.39904,,,,
2021-06-09 00:40:19+00:00,1623199219,,,,,,,,,,,28.451,0.3985,,,,
2021-06-09 01:00:19+00:00,1623200419,,,,,,,,,,,30.147,0.42227,,,,
2021-06-09 01:20:19+00:00,1623201619,,,,,,,,,,,23.941,0.33533,,,,
2021-06-09 01:40:20+00:00,1623202820,,,,,,,,,,,29.144,0.40821,,,,
2021-06-09 02:00:19+00:00,1623204019,,,,,,,,,,,27.101,0.37958,,,,
2021-06-09 02:20:19+00:00,1623205219,,,,,,,,,,,28.47,0.39877,,,,
2021-06-09 02:40:19+00:00,1623206419,,,,,,,,,,,21.639,0.3031,,,,
2021-06-09 03:00:20+00:00,1623207620,,,,,,,,,,,21.57,0.30215,,,,
2021-06-09 03:20:19+00:00,1623208819,,,,,,,,,,,20.752,0.29066,,,,
2021-06-09 03:40:19+00:00,1623210019,,,,,,,,,,,24.498,0.34313,,,,
2021-06-09 04:00:19+00:00,1623211219,,,,,,,,,,,32.57,0.45621,,,,
2021-06-09 04:20:19+00:00,1623212419,,,,,,,,,,,27.255,0.38177,,,,
2021-06-09 04:40:19+00:00,1623213619,,,,,,,,,,,29.189,0.40885,,,,
2021-06-09 05:00:19+00:00,1623214819,,,,,,,,,,,36.665,0.51354,,,,
2021-06-09 05:20:19+00:00,1623216019,,,,,,,,,,,66.671,0.93384,,,,
2021-06-09 05:40:19+00:00,1623217219,,,,,,,,,,,96.363,1.34973,,,,
2021-06-09 06:00:20+00:00,1623218420,,,,,,,,,,,141.54,1.98253,,,,
2021-06-09 06:20:19+00:00,1623219619,,,,,,,,,,,167.439,2.34525,,,,
2021-06-09 06:40:19+00:00,1623220819,,,,,,,,,,,183.416,2.56905,,,,
2021-06-09 07:00:19+00:00,1623222019,,,,,,,,,,,187.538,2.6268,,,,
2021-06-09 07:20:19+00:00,1623223219,,,,,,,,,,,186.168,2.60761,,,,
2021-06-09 07:40:20+00:00,1623224420,,,,,,,,,,,189.738,2.6576,,,,
2021-06-09 08:00:19+00:00,1623225619,,,,,,,,,,,188.001,2.6333,,,,
2021-06-09 08:20:19+00:00,1623226819,,,,,,,,,,,184.158,2.57946,,,,
2021-06-09 08:40:19+00:00,1623228019,,,,,,,,,,,187.733,2.62951,,,,
2021-06-09 09:00:19+00:00,1623229219,,,,,,,,,,,185.722,2.60135,,,,
2021-06-09 09:20:19+00:00,1623230419,,,,,,,,,,,184.475,2.5839,,,,
2021-06-09 09:40:19+00:00,1623231619,,,,,,,,,,,180.399,2.52679,,,,
2021-06-09 10:00:19+00:00,1623232819,,,,,,,,,,,177.997,2.49317,,,,
2021-06-09 10:20:19+00:00,1623234019,,,,,,,,,,,80.122,1.12224,,,,
2021-06-09 10:40:19+00:00,1623235219,,,,,,,,,,,62.077,0.86951,,,,
2021-06-09 11:00:19+00:00,1623236419,,,,,,,,,,,27.422,0.38409,,,,
2021-06-09 11:20:19+00:00,1623237619,,,,,,,,,,,6.642,0.09302,,,,
2021-06-09 11:40:19+00:00,1623238819,,,,,,,,,,,8.488,0.11888,,,,
2021-06-09 12:00:19+00:00,1623240019,,,,,,,,,,,3.913,0.05479,,,,
2021-06-09 12:20:19+00:00,1623241219,,,,,,,,,,,3.974,0.05568,,,,
2021-06-09 12:40:19+00:00,1623242419,,,,,,,,,,,6.957,0.09743,,,,
2021-06-09 13:00:19+00:00,1623243619,,,,,,,,,,,6.128,0.08583,,,,
2021-06-09 13:20:20+00:00,1623244820,,,,,,,,,,,7.724,0.1082,,,,
2021-06-09 13:40:19+00:00,1623246019,,,,,,,,,,,9.613,0.13466,,,,
2021-06-09 14:00:19+00:00,1623247219,,,,,,,,,,,9.815,0.13744,,,,
2021-06-09 14:20:19+00:00,1623248419,,,,,,,,,,,9.046,0.12673,,,,
2021-06-09 14:40:20+00:00,1623249620,,,,,,,,,,,10.563,0.14796,,,,
2021-06-09 15:00:19+00:00,1623250819,,,,,,,,,,,11.291,0.15815,,,,
2021-06-09 15:20:19+00:00,1623252019,,,,,,,,,,,12.195,0.17082,,,,
2021-06-09 15:40:19+00:00,1623253219,,,,,,,,,,,10.366,0.14521,,,,
2021-06-09 16:00:19+00:00,1623254419,,,,,,,,,,,11.956,0.16746,,,,
2021-06-09 16:20:19+00:00,1623255619,,,,,,,,,,,9.834,0.13774,,,,
2021-06-09 16:40:19+00:00,1623256819,,,,,,,,,,,12.297,0.17224,,,,
2021-06-09 17:00:19+00:00,1623258019,,,,,,,,,,,12.637,0.17703,,,,
2021-06-09 17:20:20+00:00,1623259220,,,,,,,,,,,15.863,0.2222,,,,
2021-06-09 17:40:19+00:00,1623260419,,,,,,,,,,,13.451,0.18841,,,,
2021-06-09 18:00:19+00:00,1623261619,,,,,,,,,,,15.131,0.2119,,,,
2021-06-09 18:20:19+00:00,1623262819,,,,,,,,,,,14.47,0.20268,,,,
2021-06-09 18:40:19+00:00,1623264019,,,,,,,,,,,13.474,0.18872,,,,
2021-06-09 19:00:19+00:00,1623265219,,,,,,,,,,,14.033,0.19656,,,,
2021-06-09 19:20:19+00:00,1623266419,,,,,,,,,,,15.695,0.21986,,,,
2021-06-09 19:40:19+00:00,1623267619,,,,,,,,,,,37.409,0.52394,,,,
2021-06-09 20:00:20+00:00,1623268820,,,,,,,,,,,17.55,0.24582,,,,
2021-06-09 20:20:19+00:00,1623270019,,,,,,,,,,,16.992,0.23802,,,,
2021-06-09 20:40:19+00:00,1623271219,,,,,,,,,,,16.752,0.23464,,,,
2021-06-09 21:00:19+00:00,1623272419,,,,,,,,,,,19.608,0.27464,,,,
2021-06-09 21:20:19+00:00,1623273619,,,,,,,,,,,15.727,0.22028,,,,
2021-06-09 21:40:19+00:00,1623274819,,,,,,,,,,,14.527,0.2035,,,,
2021-06-09 22:00:19+00:00,1623276019,,,,,,,,,,,16.046,0.22475,,,,
2021-06-09 22:20:19+00:00,1623277219,,,,,,,,,,,17.977,0.25181,,,,
2021-06-09 22:40:19+00:00,1623278419,,,,,,,,,,,18.814,0.26354,,,,
2021-06-09 23:00:19+00:00,1623279619,,,,,,,,,,,20.66,0.28937,,,,
2021-06-09 23:20:19+00:00,1623280819,,,,,,,,,,,20.988,0.29397,,,,
2021-06-09 23:40:19+00:00,1623282019,,,,,,,,,,,21.871,0.30636,,,,
2021-06-10 00:00:19+00:00,1623283219,,,,,,,,,,,20.289,0.28419,,,,
2021-06-10 00:20:19+00:00,1623284419,,,,,,,,,,,28.299,0.39638,,,,
2021-06-10 00:40:20+00:00,1623285620,,,,,,,,,,,26.07,0.36515,,,,
2021-06-10 01:00:19+00:00,1623286819,,,,,,,,,,,34.356,0.48121,,,,
2021-06-10 01:20:19+00:00,1623288019,,,,,,,,,,,37.027,0.51866,,,,
2021-06-10 01:40:19+00:00,1623289219,,,,,,,,,,,40.441,0.56646,,,,
2021-06-10 02:00:20+00:00,1623290420,,,,,,,,,,,40.678,0.56978,,,,
2021-06-10 02:20:19+00:00,1623291619,,,,,,,,,,,36.844,0.51608,,,,
2021-06-10 02:40:19+00:00,1623292819,,,,,,,,,,,39.828,0.55786,,,,
2021-06-10 03:00:19+00:00,1623294019,,,,,,,,,,,41.499,0.58129,,,,
2021-06-10 03:20:19+00:00,1623295219,,,,,,,,,,,45.864,0.64244,,,,
2021-06-10 03:40:19+00:00,1623296419,,,,,,,,,,,52.854,0.74032,,,,
2021-06-10 04:00:19+00:00,1623297619,,,,,,,,,,,56.167,0.78674,,,,
2021-06-10 04:20:19+00:00,1623298819,,,,,,,,,,,63.055,0.88319,,,,
2021-06-10 04:40:19+00:00,1623300019,,,,,,,,,,,69.371,0.97166,,,,
2021-06-10 05:00:19+00:00,1623301219,,,,,,,,,,,74.39,1.04197,,,,
2021-06-10 05:20:19+00:00,1623302419,,,,,,,,,,,82.672,1.15795,,,,
2021-06-10 05:40:19+00:00,1623303619,,,,,,,,,,,91.849,1.28651,,,,
2021-06-10 06:00:19+00:00,1623304819,,,,,,,,,,,100.969,1.41426,,,,
2021-06-10 06:20:19+00:00,1623306019,,,,,,,,,,,104.919,1.46957,,,,
2021-06-10 06:40:19+00:00,1623307219,,,,,,,,,,,108,1.51272,,,,
2021-06-10 07:00:19+00:00,1623308419,,,,,,,,,,,113.374,1.58803,,,,
2021-06-10 07:20:19+00:00,1623309619,,,,,,,,,,,114.749,1.60727,,,,
2021-06-10 07:40:19+00:00,1623310819,,,,,,,,,,,117.718,1.64882,,,,
2021-06-10 08:00:20+00:00,1623312020,,,,,,,,,,,121.272,1.69865,,,,
2021-06-10 08:20:19+00:00,1623313219,,,,,,,,,,,124.416,1.74266,,,,
2021-06-10 08:40:19+00:00,1623314419,,,,,,,,,,,121.909,1.70755,,,,
2021-06-10 09:00:20+00:00,1623315620,,,,,,,,,,,126.132,1.76669,,,,
2021-06-10 09:20:19+00:00,1623316819,,,,,,,,,,,128.349,1.79774,,,,
2021-06-10 09:40:19+00:00,1623318019,,,,,,,,,,,130.183,1.82343,,,,
2021-06-10 10:00:19+00:00,1623319219,,,,,,,,,,,128.447,1.79914,,,,
2021-06-10 10:20:19+00:00,1623320419,,,,,,,,,,,132.432,1.85495,,,,
2021-06-10 10:40:19+00:00,1623321619,,,,,,,,,,,133.713,1.87288,,,,
2021-06-10 11:00:19+00:00,1623322819,,,,,,,,,,,73.408,1.0282,,,,
2021-06-10 11:20:19+00:00,1623324019,,,,,,,,,,,41.602,0.58268,,,,
2021-06-10 11:40:19+00:00,1623325219,,,,,,,,,,,20.253,0.28366,,,,
2021-06-10 12:00:19+00:00,1623326419,,,,,,,,,,,12.493,0.17501,,,,
2021-06-10 12:20:19+00:00,1623327619,,,,,,,,,,,8.668,0.12141,,,,
2021-06-10 12:40:19+00:00,1623328819,,,,,,,,,,,11.236,0.15741,,,,
2021-06-10 13:00:19+00:00,1623330019,,,,,,,,,,,6.508,0.09115,,,,
2021-06-10 13:20:19+00:00,1623331219,,,,,,,,,,,7.824,0.1096,,,,
2021-06-10 13:40:19+00:00,1623332419,,,,,,,,,,,6.859,0.09606,,,,
2021-06-10 14:00:19+00:00,1623333619,,,,,,,,,,,12.42,0.17398,,,,
2021-06-10 14:20:19+00:00,1623334819,,,,,,,,,,,12.923,0.181,,,,
2021-06-10 14:40:19+00:00,1623336019,,,,,,,,,,,14.482,0.20287,,,,
2021-06-10 15:00:19+00:00,1623337219,,,,,,,,,,,15.451,0.21646,,,,
2021-06-10 15:20:20+00:00,1623338420,,,,,,,,,,,15.632,0.21897,,,,
2021-06-10 15:40:19+00:00,1623339619,,,,,,,,,,,16.248,0.2276,,,,
2021-06-10 16:00:19+00:00,1623340819,,,,,,,,,,,13.47,0.18868,,,,
2021-06-10 16:20:19+00:00,1623342019,,,,,,,,,,,11.875,0.16633,,,,
2021-06-10 16:40:20+00:00,1623343220,,,,,,,,,,,13.472,0.18871,,,,
2021-06-10 17:00:19+00:00,1623344419,,,,,,,,,,,12.2,0.17089,,,,
2021-06-10 17:20:19+00:00,1623345619,,,,,,,,,,,13.958,0.1955,,,,
2021-06-10 17:40:19+00:00,1623346819,,,,,,,,,,,13.881,0.19444,,,,
2021-06-10 18:00:20+00:00,1623348020,,,,,,,,,,,13.385,0.18746,,,,
2021-06-10 18:20:19+00:00,1623349219,,,,,,,,,,,17.403,0.24379,,,,
2021-06-10 18:40:19+00:00,1623350419,,,,,,,,,,,14.521,0.20341,,,,
2021-06-10 19:00:19+00:00,1623351619,,,,,,,,,,,18.477,0.25878,,,,
2021-06-10 19:20:19+00:00,1623352819,,,,,,,,,,,13.725,0.19225,,,,
2021-06-10 19:40:19+00:00,1623354019,,,,,,,,,,,21.958,0.30756,,,,
2021-06-10 20:00:19+00:00,1623355219,,,,,,,,,,,28.54,0.39974,,,,
2021-06-10 20:20:19+00:00,1623356419,,,,,,,,,,,27.623,0.3869,,,,
2021-06-10 20:40:19+00:00,1623357619,,,,,,,,,,,26.62,0.37286,,,,
2021-06-10 21:00:20+00:00,1623358820,,,,,,,,,,,28.871,0.40437,,,,
2021-06-10 21:20:19+00:00,1623360019,,,,,,,,,,,27.466,0.38471,,,,
2021-06-10 21:40:19+00:00,1623361219,,,,,,,,,,,25.963,0.36367,,,,
2021-06-10 22:00:19+00:00,1623362419,,,,,,,,,,,23.527,0.32954,,,,
2021-06-10 22:20:19+00:00,1623363619,,,,,,,,,,,23.742,0.33253,,,,
2021-06-10 22:40:19+00:00,1623364819,,,,,,,,,,,24.265,0.33986,,,,
2021-06-10 23:00:19+00:00,1623366019,,,,,,,,,,,22.933,0.32122,,,,
2021-06-10 23:20:19+00:00,1623367219,,,,,,,,,,,24.29,0.34022,,,,
2021-06-10 23:40:19+00:00,1623368419,,,,,,,,,,,18.812,0.26348,,,,
2021-06-11 00:00:20+00:00,1623369620,,,,,,,,,,,25.013,0.35036,,,,
2021-06-11 00:20:19+00:00,1623370819,,,,,,,,,,,27.548,0.38585,,,,
2021-06-11 00:40:19+00:00,1623372019,,,,,,,,,,,42.125,0.59002,,,,
2021-06-11 01:00:19+00:00,1623373219,,,,,,,,,,,46.763,0.65499,,,,
2021-06-11 01:20:19+00:00,1623374419,,,,,,,,,,,46.372,0.64952,,,,
2021-06-11 01:40:20+00:00,1623375620,,,,,,,,,,,49.917,0.69919,,,,
2021-06-11 02:00:19+00:00,1623376819,,,,,,,,,,,49.828,0.69793,,,,
2021-06-11 02:20:19+00:00,1623378019,,,,,,,,,,,53.49,0.74921,,,,
2021-06-11 02:40:19+00:00,1623379219,,,,,,,,,,,58.549,0.82008,,,,
2021-06-11 03:00:19+00:00,1623380419,,,,,,,,,,,65.68,0.91997,,,,
2021-06-11 03:20:19+00:00,1623381619,,,,,,,,,,,71.513,1.00168,,,,
2021-06-11 03:40:19+00:00,1623382819,,,,,,,,,,,96.345,1.34947,,,,
2021-06-11 04:00:20+00:00,1623384020,,,,,,,,,,,117.178,1.64126,,,,
2021-06-11 04:20:19+00:00,1623385219,,,,,,,,,,,132.731,1.85913,,,,
2021-06-11 04:40:19+00:00,1623386419,,,,,,,,,,,148.199,2.07578,,,,
2021-06-11 05:00:19+00:00,1623387619,,,,,,,,,,,144.285,2.02096,,,,
2021-06-11 05:20:19+00:00,1623388819,,,,,,,,,,,141.686,1.98455,,,,
2021-06-11 05:40:19+00:00,1623390019,,,,,,,,,,,148.209,2.0759,,,,
2021-06-11 06:00:19+00:00,1623391219,,,,,,,,,,,156.442,2.1912,,,,
2021-06-11 06:20:19+00:00,1623392419,,,,,,,,,,,158.382,2.21841,,,,
2021-06-11 06:40:19+00:00,1623393619,,,,,,,,,,,154.976,2.17072,,,,
2021-06-11 07:00:19+00:00,1623394819,,,,,,,,,,,154.147,2.1591,,,,
2021-06-11 07:20:19+00:00,1623396019,,,,,,,,,,,150.927,2.11399,,,,
2021-06-11 07:40:19+00:00,1623397219,,,,,,,,,,,154.944,2.17027,,,,
2021-06-11 08:00:19+00:00,1623398419,,,,,,,,,,,151.935,2.12811,,,,
2021-06-11 08:20:19+00:00,1623399619,,,,,,,,,,,154.479,2.16374,,,,
2021-06-11 08:40:19+00:00,1623400819,,,,,,,,,,,150.661,2.11026,,,,
2021-06-11 09:00:20+00:00,1623402020,,,,,,,,,,,150.352,2.10596,,,,
2021-06-11 09:20:19+00:00,1623403219,,,,,,,,,,,151.482,2.12175,,,,
2021-06-11 09:40:19+00:00,1623404419,,,,,,,,,,,146.675,2.05445,,,,
2021-06-11 10:00:19+00:00,1623405619,,,,,,,,,,,150.841,2.11277,,,,
2021-06-11 10:20:19+00:00,1623406819,,,,,,,,,,,146.326,2.04954,,,,
2021-06-11 10:40:19+00:00,1623408019,,,,,,,,,,,150.503,2.10803,,,,
2021-06-11 11:00:19+00:00,1623409219,,,,,,,,,,,142.254,1.99252,,,,
2021-06-11 11:20:20+00:00,1623410420,,,,,,,,,,,138.174,1.93536,,,,
2021-06-11 11:40:19+00:00,1623411619,,,,,,,,,,,102.569,1.43667,,,,
2021-06-11 12:00:19+00:00,1623412819,,,,,,,,,,,64.058,0.89726,,,,
2021-06-11 12:20:19+00:00,1623414019,,,,,,,,,,,47.205,0.66118,,,,
2021-06-11 12:40:19+00:00,1623415219,,,,,,,,,,,40.503,0.56733,,,,
2021-06-11 13:00:19+00:00,1623416419,,,,,,,,,,,33.869,0.47441,,,,
2021-06-11 13:20:19+00:00,1623417619,,,,,,,,,,,27.878,0.39047,,,,
2021-06-11 13:40:19+00:00,1623418819,,,,,,,,,,,24.413,0.34195,,,,
2021-06-11 14:00:19+00:00,1623420019,,,,,,,,,,,18.038,0.25263,,,,
2021-06-11 14:20:19+00:00,1623421219,,,,,,,,,,,14.501,0.20311,,,,
2021-06-11 14:40:19+00:00,1623422419,,,,,,,,,,,10.331,0.14474,,,,
2021-06-11 15:00:19+00:00,1623423619,,,,,,,,,,,8.342,0.11683,,,,
2021-06-11 15:20:20+00:00,1623424820,,,,,,,,,,,14.004,0.19613,,,,
2021-06-11 15:40:19+00:00,1623426019,,,,,,,,,,,14.454,0.20246,,,,
2021-06-11 16:00:19+00:00,1623427219,,,,,,,,,,,18.328,0.25673,,,,
2021-06-11 16:20:19+00:00,1623428419,,,,,,,,,,,14.513,0.20328,,,,
2021-06-11 16:40:20+00:00,1623429620,,,,,,,,,,,18.475,0.25877,,,,
2021-06-11 17:00:19+00:00,1623430819,,,,,,,,,,,12.273,0.17191,,,,
2021-06-11 17:20:19+00:00,1623432019,,,,,,,,,,,16.317,0.22855,,,,
2021-06-11 17:40:19+00:00,1623433219,,,,,,,,,,,16.206,0.22698,,,,
2021-06-11 18:00:20+00:00,1623434420,,,,,,,,,,,17.504,0.24517,,,,
2021-06-11 18:20:19+00:00,1623435619,,,,,,,,,,,18.301,0.25632,,,,
2021-06-11 18:40:19+00:00,1623436819,,,,,,,,,,,19.422,0.27204,,,,
2021-06-11 19:00:19+00:00,1623438019,,,,,,,,,,,22.695,0.31788,,,,
2021-06-11 19:20:19+00:00,1623439219,,,,,,,,,,,23.514,0.32935,,,,
2021-06-11 19:40:20+00:00,1623440420,,,,,,,,,,,33.762,0.4729,,,,
2021-06-11 20:00:19+00:00,1623441619,,,,,,,,,,,40.037,0.56082,,,,
2021-06-11 20:20:19+00:00,1623442819,,,,,,,,,,,54.817,0.7678,,,,
2021-06-11 20:40:19+00:00,1623444019,,,,,,,,,,,58.401,0.81801,,,,
2021-06-11 21:00:20+00:00,1623445220,,,,,,,,,,,68.658,0.96167,,,,
2021-06-11 21:20:19+00:00,1623446419,,,,,,,,,,,75.062,1.05136,,,,
2021-06-11 21:40:19+00:00,1623447619,,,,,,,,,,,84.655,1.18575,,,,
2021-06-11 22:00:20+00:00,1623448820,,,,,,,,,,,73.293,1.02659,,,,
2021-06-11 22:20:20+00:00,1623450020,,,,,,,,,,,77.453,1.08484,,,,
2021-06-11 22:40:19+00:00,1623451219,,,,,,,,,,,80.618,1.12921,,,,
2021-06-11 23:00:19+00:00,1623452419,,,,,,,,,,,78.106,1.09403,,,,
2021-06-11 23:20:19+00:00,1623453619,,,,,,,,,,,79.833,1.11818,,,,
2021-06-11 23:40:20+00:00,1623454820,,,,,,,,,,,79.33,1.11115,,,,
2021-06-12 00:00:19+00:00,1623456019,,,,,,,,,,,85.905,1.20324,,,,
2021-06-12 00:20:19+00:00,1623457219,,,,,,,,,,,83.75,1.17306,,,,
2021-06-12 00:40:19+00:00,1623458419,,,,,,,,,,,82.332,1.15318,,,,
2021-06-12 01:00:19+00:00,1623459619,,,,,,,,,,,87.679,1.22809,,,,
2021-06-12 01:20:19+00:00,1623460819,,,,,,,,,,,86.502,1.21161,,,,
2021-06-12 01:40:20+00:00,1623462020,,,,,,,,,,,92.46,1.29507,,,,
2021-06-12 02:00:20+00:00,1623463220,,,,,,,,,,,98.582,1.38083,,,,
2021-06-12 02:20:19+00:00,1623464419,,,,,,,,,,,101.765,1.4254,,,,
2021-06-12 02:40:20+00:00,1623465620,,,,,,,,,,,106.293,1.48882,,,,
2021-06-12 03:00:20+00:00,1623466820,,,,,,,,,,,111.748,1.56525,,,,
2021-06-12 03:20:20+00:00,1623468020,,,,,,,,,,,121.457,1.70123,,,,
2021-06-12 03:40:19+00:00,1623469219,,,,,,,,,,,132.434,1.85496,,,,
2021-06-12 04:00:20+00:00,1623470420,,,,,,,,,,,135.966,1.90443,,,,
2021-06-12 04:20:20+00:00,1623471620,,,,,,,,,,,134.552,1.8846,,,,
2021-06-12 04:40:20+00:00,1623472820,,,,,,,,,,,138.86,1.94494,,,,
2021-06-12 05:00:19+00:00,1623474019,,,,,,,,,,,139.148,1.94898,,,,
2021-06-12 05:20:20+00:00,1623475220,,,,,,,,,,,127.351,1.78376,,,,
2021-06-12 05:40:20+00:00,1623476420,,,,,,,,,,,125.005,1.7509,,,,
2021-06-12 06:00:20+00:00,1623477620,,,,,,,,,,,122.599,1.71722,,,,
2021-06-12 06:20:19+00:00,1623478819,,,,,,,,,,,116.237,1.6281,,,,
2021-06-12 06:40:20+00:00,1623480020,,,,,,,,,,,113.472,1.58939,,,,
2021-06-12 07:00:20+00:00,1623481220,,,,,,,,,,,119.377,1.6721,,,,
2021-06-12 07:20:19+00:00,1623482419,,,,,,,,,,,117.164,1.6411,,,,
2021-06-12 07:40:19+00:00,1623483619,,,,,,,,,,,110.562,1.54862,,,,
2021-06-12 08:00:20+00:00,1623484820,,,,,,,,,,,104.588,1.46492,,,,
2021-06-12 08:20:20+00:00,1623486020,,,,,,,,,,,106.508,1.49183,,,,
2021-06-12 08:40:19+00:00,1623487219,,,,,,,,,,,108.401,1.51835,,,,
2021-06-12 09:00:20+00:00,1623488420,,,,,,,,,,,108.894,1.52524,,,,
2021-06-12 09:20:20+00:00,1623489620,,,,,,,,,,,106.157,1.48691,,,,
2021-06-12 09:40:19+00:00,1623490819,,,,,,,,,,,100.045,1.40132,,,,
2021-06-12 10:00:20+00:00,1623492020,,,,,,,,,,,94.618,1.32529,,,,
2021-06-12 10:20:20+00:00,1623493220,,,,,,,,,,,97.081,1.35977,,,,
2021-06-12 10:40:19+00:00,1623494419,,,,,,,,,,,98.569,1.38063,,,,
2021-06-12 11:00:19+00:00,1623495619,,,,,,,,,,,96.742,1.35503,,,,
2021-06-12 11:20:20+00:00,1623496820,,,,,,,,,,,95.263,1.33434,,,,
2021-06-12 11:40:20+00:00,1623498020,,,,,,,,,,,96.701,1.35444,,,,
2021-06-12 12:00:19+00:00,1623499219,,,,,,,,,,,93.655,1.31176,,,,
2021-06-12 12:20:20+00:00,1623500420,,,,,,,,,,,82.45,1.15486,,,,
2021-06-12 12:40:20+00:00,1623501620,,,,,,,,,,,63.214,0.88543,,,,
2021-06-12 13:00:20+00:00,1623502820,,,,,,,,,,,50.522,0.70761,,,,
2021-06-12 13:20:19+00:00,1623504019,,,,,,,,,,,36.231,0.50748,,,,
2021-06-12 13:40:20+00:00,1623505220,,,,,,,,,,,31.333,0.43887,,,,
2021-06-12 14:00:20+00:00,1623506420,,,,,,,,,,,27.932,0.39123,,,,
2021-06-12 14:20:19+00:00,1623507619,,,,,,,,,,,24.74,0.34652,,,,
2021-06-12 14:40:20+00:00,1623508820,,,,,,,,,,,24.16,0.33844,,,,
2021-06-12 15:00:20+00:00,1623510020,,,,,,,,,,,25.987,0.36398,,,,
2021-06-12 15:20:19+00:00,1623511219,,,,,,,,,,,16.955,0.2375,,,,
2021-06-12 15:40:20+00:00,1623512420,,,,,,,,,,,16.586,0.23232,,,,
2021-06-12 16:00:20+00:00,1623513620,,,,,,,,,,,12.929,0.1811,,,,
2021-06-12 16:20:20+00:00,1623514820,,,,,,,,,,,16.495,0.23103,,,,
2021-06-12 16:40:20+00:00,1623516020,,,,,,,,,,,17.312,0.2425,,,,
2021-06-12 17:00:20+00:00,1623517220,,,,,,,,,,,19.485,0.27292,,,,
2021-06-12 17:20:20+00:00,1623518420,,,,,,,,,,,19.211,0.26909,,,,
2021-06-12 17:40:19+00:00,1623519619,,,,,,,,,,,20.165,0.28245,,,,